Location: Fort Worth, Tx
(32.7431°N, 97.3695°W)
Time: 18:27:05
(UTC-04:00)

Transit 4A - Pass Details

Date: 05 March 2024
Orbit: 871 x 972 km, 66.8° (Epoch: 21 April)

Event Time Altitude Azimuth Distance (km) Brightness Sun altitude
Rises 22:23:49 0° 152° (SSE) 3,615 - -36.8°
Reaches altitude 10° 22:28:16 10° 123° (ESE) 2,653 - -37.7°
Maximum altitude 22:30:25 12° 102° (ESE) 2,505 - -38.1°
Drops below altitude 10° 22:32:33 10° 82° (E) 2,634 - -38.5°
Sets 22:36:53 0° 52° (NE) 3,556 - -39.3°
